TUBIN
1 48900U 21059X   25239.62341353  .00063090  00000-0  57842-3 0  9993
2 48900  97.6781  55.6995 0002369 287.3756  72.7245 15.67566516232392
LEDSAT
1 49069U 21073D   25239.20776678  .00160384  00000-0  11205-2 0  9998
2 49069  97.3807 324.6701 0007369 158.5572 201.6002 15.73779615223745
CUTE
1 49263U 21088D   25239.19211342  .00046194  00000-0  81158-3 0  9997
2 49263  97.4456 317.8963 0004981 314.1190  45.9651 15.50364020216598
TeikyoSat 4
1 49396U 21102B   25239.59122051  .00002200  00000-0  14707-3 0  9999
2 49396  97.4052 275.1593 0011454 216.3641 143.6810 15.07928738208452
Z-Sat
1 49399U 21102E   25239.56290853  .00004481  00000-0  24270-3 0  9994
2 49399  97.3743 278.7295 0017823 184.4894 175.6182 15.14982460208930
KOSEN 1
1 49402U 21102H   25239.36726898  .00007682  00000-0  34610-3 0  9995
2 49402  97.3639 282.5657 0016408 157.7144 202.4808 15.21209112209268
HO-113
1 50466U 21131B   25239.64864271  .00000582  00000-0  19514-3 0  9996
2 50466  98.5090 328.6136 0003055 252.8671 107.2183 14.40892644192834
SNUGLITE 2
1 52899U 22065F   25239.33207066  .00001322  00000-0  26493-3 0  9991
2 52899  98.1797  20.5915 0006807 219.1123 140.9588 14.63374666168004
UmKA 1 (RS40S)
1 57172U 23091G   25239.56306404  .00007404  00000-0  38627-3 0  9990
2 57172  97.5510 294.5454 0015432  65.1988 295.0848 15.16137950119449
CubeBel-2 (EU11S)
1 57175U 23091K   25239.57175798  .00012423  00000-0  56813-3 0  9998
2 57175  97.5507 296.2080 0013083  71.5090 288.7566 15.20606493119553
ENSO
1 58470U 23185J   25239.59444846  .00100561  00000-0  99615-3 0  9994
2 58470  97.3655 317.7239 0006516 157.2206 202.9344 15.65480792 97359
EIRSAT-1
1 58472U 23185L   25239.61703006  .00754174  27017-3  13847-2 0  9992
2 58472  97.3482 321.8737 0007539 236.9053 123.1503 16.01287382 97632
SONATE-2
1 59112U 24043Q   25239.60220190  .00022749  00000-0  60594-3 0  9993
2 59112  97.5233  12.5393 0010571 187.1506 172.9589 15.38138951 82470
MO-122
1 60209U 24125G   25239.52921599  .00022970  00000-0  59986-3 0  9994
2 60209  97.2705  90.3681 0016880 208.1930 151.8404 15.38651343 64082
GRBBeta
1 60237U 24128C   25239.51062744  .00006050  00000-0  44471-3 0  9999
2 60237  61.9915 164.2292 0056424  74.5075 286.2237 15.03224865 62066
Curium One
1 60242U 24128H   25239.20740949  .00011005  00000-0  73540-3 0  9996
2 60242  61.9811 162.3443 0056455  71.0979 289.6222 15.06132272 62078
ROBUSTA-3A
1 60243U 24128J   25239.36835243  .00010466  00000-0  71085-3 0  9998
2 60243  61.9880 162.8809 0055720  68.7211 291.9818 15.05605266 62087
CatSat
1 60246U 24125J   25239.57158369  .00022850  00000-0  71448-3 0  9991
2 60246  97.2518  88.6909 0041152 170.2570 189.9480 15.32305523 62070
HYPERVIEW-1G (RS66S)
1 61772U 24199AP  25239.58755168  .00027587  00000-0  72597-3 0  9996
2 61772  97.3404 108.3928 0010512 267.6628  92.3414 15.38471365 89091
AO-123
1 61781U 24199AY  25239.58117399  .00008573  00000-0  30341-3 0  9999
2 61781  97.3425 106.3282 0013608 278.6860  81.2839 15.29301552 88956
ZIMSAT 2
1 61783U 24199BA  25239.57302883  .00050917  00000-0  10271-2 0  9992
2 61783  97.3367 109.7230 0009318 257.5509 102.4698 15.46329373 92338
HADES-R (SO-124)
1 62690U 25009CK  25239.46713190  .00051287  00000-0  15287-2 0  9999
2 62690  97.4039 320.2283 0003869 169.1380 190.9947 15.34491405 34227
HYDRA-T
1 62692U 25009CM  25239.11003980  .00054463  00000-0  16036-2 0  9994
2 62692  97.4040 319.9424 0003689 166.2250 193.9095 15.34862815 34175
JINJUSat 1B
1 63210U 25052A   25239.58745394  .00015121  00000-0  66039-3 0  9999
2 63210  97.4296 132.7467 0005885  61.5892 298.5937 15.22198049 25267
NUSHSAT 1
1 63211U 25052B   25239.43485209  .00015607  00000-0  67339-3 0  9993
2 63211  97.4285 132.6229 0006120  66.4162 293.7717 15.22602024 25242
TEVEL2-4
1 63213U 25052D   25238.67677523  .00013526  00000-0  59111-3 0  9999
2 63213  97.4202 131.6257 0005525  81.0364 279.1498 15.22201876 25129
TEVEL2-5
1 63214U 25052E   25239.13882649  .00014345  00000-0  62703-3 0  9990
2 63214  97.4200 132.0778 0005488  79.8668 280.3187 15.22181513 25192
TEVEL2-6
1 63215U 25052F   25238.68284983  .00013379  00000-0  58597-3 0  9999
2 63215  97.4204 131.6207 0005597  81.6659 278.5212 15.22129287 25122
TEVEL2-1
1 63217U 25052H   25238.96863446  .00014240  00000-0  62771-3 0  9996
2 63217  97.4180 131.7965 0005845  89.0568 271.1338 15.21894062 25167
TEVEL2-3
1 63218U 25052J   25239.62628048  .00014831  00000-0  65305-3 0  9990
2 63218  97.4179 132.4468 0005883  88.3986 271.7924 15.21921130 25265
TEVEL2-2
1 63219U 25052K   25239.62679299  .00014620  00000-0  64405-3 0  9991
2 63219  97.4178 132.4452 0005862  88.2903 271.9005 15.21910342 25268
TEVEL2-9
1 63237U 25052AD  25239.42733812  .00013558  00000-0  61980-3 0  9995
2 63237  97.4242 132.0874 0010134  98.3182 261.9203 15.20626006 25217
TEVEL2-7
1 63238U 25052AE  25238.64357173  .00013086  00000-0  60013-3 0  9993
2 63238  97.4247 131.3054 0010165 100.3793 259.8589 15.20523576 25098
TEVEL2-8
1 63239U 25052AF  25239.43690908  .00013586  00000-0  62308-3 0  9992
2 63239  97.4247 132.0769 0010236  98.5106 261.7290 15.20514147 25214
HYDRA-W
1 63490U 25052BL  25239.15334903  .00035396  00000-0  13289-2 0  9996
2 63490  97.4184 132.6429 0013902  96.0260 264.2564 15.27025279 25233
HADES-ICM (SO-125)
1 63492U 25052BN  25238.67150474  .00032532  00000-0  12484-2 0  9998
2 63492  97.4194 132.0784 0013996 100.3328 259.9489 15.26315532 25152
